,,Stat5,,Stat1,,Stat2,,Stat3,,Stat4,,Wind1,,Wind1,
time,status,PA1M_AVG,status,PR1M_SUM,status,RH1M_AVG,status,SR1M_AVG,status,TA1M_AVG,status,W1dAve1m,status,W1sAve1m,
2001-04-23, 00:00:00,VALID,916.035,VALID,0,VALID,96.4677,VALID,0.0849042,VALID,20.8769,VALID,98,VALID,0.853516,
2001-04-23, 00:01:00,VALID,916.035,VALID,0,VALID,96.6063,VALID,0.0509425,VALID,20.8766,VALID,106,VALID,0.628551,
2001-04-23, 00:02:00,VALID,916.029,VALID,0,VALID,96.6763,VALID,0.0169808,VALID,20.8836,VALID,92,VALID,0.783854,
2001-04-23, 00:03:00,VALID,916.013,VALID,0,VALID,96.5707,VALID,0.0339617,VALID,20.871,VALID,91,VALID,0.812066,
2001-04-23, 00:04:00,VALID,916.017,VALID,0,VALID,96.6419,VALID,0,VALID,20.8408,VALID,97,VALID,0.732307,
2001-04-23, 00:05:00,VALID,916.011,VALID,0,VALID,96.6102,VALID,0.0169808,VALID,20.8416,VALID,94,VALID,0.762247,
2001-04-23, 00:06:00,VALID,916.011,VALID,0,VALID,96.5237,VALID,0.0169808,VALID,20.8386,VALID,84,VALID,0.490132,
2001-04-23, 00:07:00,VALID,915.999,VALID,0,VALID,96.5707,VALID,0.0169808,VALID,20.8357,VALID,82,VALID,0.381123,
2001-04-23, 00:08:00,VALID,915.997,VALID,0,VALID,96.5873,VALID,0.0169808,VALID,20.8225,VALID,60,VALID,0.811883,
2001-04-23, 00:09:00,VALID,915.991,VALID,0,VALID,96.5746,VALID,0.0169808,VALID,20.8023,VALID,69,VALID,0.472098,
2001-04-23, 00:10:00,VALID,915.973,VALID,0,VALID,96.7208,VALID,0,VALID,20.7991,VALID,70,VALID,0.72389,
2001-04-23, 00:11:00,VALID,915.971,VALID,0,VALID,96.6992,VALID,0.0679233,VALID,20.8063,VALID,88,VALID,1.04688,
2001-04-23, 00:12:00,VALID,915.948,VALID,0,VALID,96.7831,VALID,0.0679233,VALID,20.7832,VALID,58,VALID,1.07216,
2001-04-23, 00:13:00,VALID,915.946,VALID,0,VALID,96.6394,VALID,0.101885,VALID,20.7568,VALID,48,VALID,0.898638,
2001-04-23, 00:14:00,VALID,915.944,VALID,0,VALID,96.703,VALID,0.0169808,VALID,20.7412,VALID,79,VALID,0.915625,
2001-04-23, 00:15:00,VALID,915.915,VALID,0,VALID,96.8022,VALID,0.0169808,VALID,20.7385,VALID,54,VALID,0.703758,
2001-04-23, 00:16:00,VALID,915.925,VALID,0,VALID,96.8429,VALID,0.0169808,VALID,20.735,VALID,78,VALID,0.851563,
2001-04-23, 00:17:00,VALID,915.906,VALID,0,VALID,96.9446,VALID,0.0509425,VALID,20.7517,VALID,96,VALID,0.59375,
2001-04-23, 00:18:00,VALID,915.891,VALID,0,VALID,97.0247,VALID,0.0509425,VALID,20.7573,VALID,96,VALID,0.380345,
2001-04-23, 00:19:00,VALID,915.893,VALID,0,VALID,97.0336,VALID,0.0509425,VALID,20.77,VALID,77,VALID,0.706731,
2001-04-23, 00:20:00,VALID,915.881,VALID,0,VALID,96.9446,VALID,0.0509425,VALID,20.784,VALID,76,VALID,0.675987,
2001-04-23, 00:21:00,VALID,915.862,VALID,0,VALID,96.9955,VALID,0.0849042,VALID,20.77,VALID,75,VALID,0.351162,
2001-04-23, 00:22:00,VALID,915.863,VALID,0,VALID,96.8975,VALID,0.0509425,VALID,20.7539,VALID,48,VALID,0.466406,
2001-04-23, 00:23:00,VALID,915.844,VALID,0,VALID,96.8301,VALID,-0.0169808,VALID,20.746,VALID,55,VALID,0.216427,
2001-04-23, 00:24:00,VALID,915.836,VALID,0,VALID,96.7971,VALID,-0.0849042,VALID,20.7338,VALID,4,VALID,0.378125,
2001-04-23, 00:25:00,VALID,915.835,VALID,0,VALID,96.8836,VALID,-0.0169808,VALID,20.7298,VALID,344,VALID,0,
2001-04-23, 00:26:00,VALID,915.828,VALID,0,VALID,96.9777,VALID,-0.0169808,VALID,20.7422,VALID,332,VALID,0,
2001-04-23, 00:27:00,VALID,915.828,VALID,0,VALID,97.0171,VALID,-0.0169808,VALID,20.7492,VALID,332,VALID,0,
2001-04-23, 00:28:00,VALID,915.826,VALID,0,VALID,97.0552,VALID,-0.0169808,VALID,20.7589,VALID,332,VALID,0,
2001-04-23, 00:29:00,VALID,915.835,VALID,0,VALID,96.9967,VALID,-0.0169808,VALID,20.7624,VALID,332,VALID,0,
2001-04-23, 00:30:00,VALID,915.832,VALID,0,VALID,97.0883,VALID,-0.0339617,VALID,20.7689,VALID,334,VALID,0,
2001-04-23, 00:31:00,VALID,915.827,VALID,0,VALID,97.2218,VALID,-0.0509425,VALID,20.7912,VALID,339,VALID,0,
2001-04-23, 00:32:00,VALID,915.84,VALID,0,VALID,97.2727,VALID,0,VALID,20.8144,VALID,340,VALID,0,
2001-04-23, 00:33:00,VALID,915.846,VALID,0,VALID,97.3006,VALID,0,VALID,20.8168,VALID,341,VALID,0.0176282,
2001-04-23, 00:34:00,VALID,915.826,VALID,0,VALID,97.349,VALID,-0.0339617,VALID,20.8198,VALID,53,VALID,0.288446,
2001-04-23, 00:35:00,VALID,915.818,VALID,0,VALID,97.424,VALID,-0.0509425,VALID,20.8327,VALID,96,VALID,0.16847,
2001-04-23, 00:36:00,VALID,915.822,VALID,0,VALID,97.382,VALID,-0.0169808,VALID,20.8198,VALID,96,VALID,0.148026,
2001-04-23, 00:37:00,VALID,915.805,VALID,0,VALID,97.4799,VALID,-0.0509425,VALID,20.83,VALID,96,VALID,0.358974,
2001-04-23, 00:38:00,VALID,915.808,VALID,0,VALID,97.5155,VALID,-0.0509425,VALID,20.8327,VALID,98,VALID,0.791211,
2001-04-23, 00:39:00,VALID,915.798,VALID,0,VALID,97.5015,VALID,-0.0509425,VALID,20.833,VALID,95,VALID,0.0730574,
2001-04-23, 00:40:00,VALID,915.809,VALID,0,VALID,97.4774,VALID,0,VALID,20.8397,VALID,95,VALID,0.000976563,
2001-04-23, 00:41:00,VALID,915.785,VALID,0,VALID,97.5499,VALID,0,VALID,20.8489,VALID,95,VALID,0,
2001-04-23, 00:42:00,VALID,915.77,VALID,0,VALID,97.56,VALID,-0.0339617,VALID,20.8779,VALID,95,VALID,0,
2001-04-23, 00:43:00,VALID,915.741,VALID,0,VALID,97.499,VALID,-0.0169808,VALID,20.8814,VALID,96,VALID,0.0512821,
2001-04-23, 00:44:00,VALID,915.723,VALID,0,VALID,97.5066,VALID,0,VALID,20.8944,VALID,95,VALID,0.107372,
2001-04-23, 00:45:00,VALID,915.712,VALID,0,VALID,97.5804,VALID,-0.0339617,VALID,20.9076,VALID,93,VALID,0.0913462,
2001-04-23, 00:46:00,VALID,915.681,VALID,0,VALID,97.6274,VALID,-0.0169808,VALID,20.9167,VALID,92,VALID,0.0138672,
2001-04-23, 00:47:00,VALID,915.658,VALID,0,VALID,97.6033,VALID,0,VALID,20.9267,VALID,94,VALID,0.158361,
2001-04-23, 00:48:00,VALID,915.634,VALID,0,VALID,97.5448,VALID,0,VALID,20.9162,VALID,106,VALID,0.347461,
2001-04-23, 00:49:00,VALID,915.614,VALID,0,VALID,97.5524,VALID,-0.0509425,VALID,20.9296,VALID,104,VALID,0.655048,
2001-04-23, 00:50:01,VALID,915.596,VALID,0,VALID,97.5257,VALID,-0.0169808,VALID,20.9498,VALID,108,VALID,0.648849,
2001-04-23, 00:51:00,VALID,915.585,VALID,0,VALID,97.438,VALID,-0.0339617,VALID,20.9329,VALID,104,VALID,0.542268,
2001-04-23, 00:52:00,VALID,915.567,VALID,0,VALID,97.3032,VALID,0,VALID,20.9232,VALID,94,VALID,0.740748,
2001-04-23, 00:53:00,VALID,915.537,VALID,0,VALID,97.2243,VALID,0.0509425,VALID,20.9065,VALID,88,VALID,1.05188,
2001-04-23, 00:54:00,VALID,915.511,VALID,0,VALID,97.0527,VALID,0.0849042,VALID,20.8834,VALID,91,VALID,0.696289,
2001-04-23, 00:55:00,VALID,915.492,VALID,0,VALID,97.0539,VALID,0.0849042,VALID,20.8602,VALID,93,VALID,0.433699,
2001-04-23, 00:56:00,VALID,915.47,VALID,0,VALID,96.9484,VALID,0.0509425,VALID,20.8476,VALID,67,VALID,0.494531,
2001-04-23, 00:57:00,VALID,915.463,VALID,0,VALID,96.8848,VALID,0.0509425,VALID,20.8317,VALID,84,VALID,0.345152,
2001-04-23, 00:58:01,VALID,915.455,VALID,0,VALID,96.8594,VALID,0.0849042,VALID,20.8217,VALID,87,VALID,0.845806,
2001-04-23, 00:59:00,VALID,915.451,VALID,0,VALID,96.8746,VALID,0.0679233,VALID,20.8088,VALID,100,VALID,0.773638,
2001-04-23, 01:00:00,VALID,915.445,VALID,0,VALID,96.9738,VALID,0.0849042,VALID,20.812,VALID,79,VALID,0.43935,
2001-04-23, 01:01:00,VALID,915.428,VALID,0,VALID,96.9738,VALID,0,VALID,20.8085,VALID,82,VALID,0.494792,
2001-04-23, 01:02:00,VALID,915.419,VALID,0,VALID,96.9395,VALID,0.0509425,VALID,20.8055,VALID,105,VALID,0.524805,
2001-04-23, 01:03:00,VALID,915.404,VALID,0,VALID,97.0501,VALID,0.0849042,VALID,20.822,VALID,105,VALID,0.561867,
2001-04-23, 01:04:00,VALID,915.389,VALID,0,VALID,97.0311,VALID,0.0679233,VALID,20.8346,VALID,90,VALID,0.610742,
2001-04-23, 01:05:00,VALID,915.365,VALID,0,VALID,96.9357,VALID,0.0849042,VALID,20.8354,VALID,96,VALID,0.402644,
2001-04-23, 01:06:01,VALID,915.36,VALID,0,VALID,96.9738,VALID,0.0679233,VALID,20.8349,VALID,95,VALID,0.00904605,
2001-04-23, 01:07:00,VALID,915.346,VALID,0,VALID,96.9675,VALID,0.0679233,VALID,20.8473,VALID,95,VALID,0,
2001-04-23, 01:08:00,VALID,915.324,VALID,0,VALID,96.9509,VALID,0.0509425,VALID,20.861,VALID,105,VALID,0,
2001-04-23, 01:09:00,VALID,915.309,VALID,0,VALID,96.9967,VALID,0.0509425,VALID,20.8734,VALID,106,VALID,0,
2001-04-23, 01:10:00,VALID,915.295,VALID,0,VALID,97.0654,VALID,0.0339617,VALID,20.8965,VALID,106,VALID,0,
2001-04-23, 01:11:00,VALID,915.277,VALID,0,VALID,97.0044,VALID,0,VALID,20.8931,VALID,106,VALID,0,
2001-04-23, 01:12:00,VALID,915.254,VALID,0,VALID,97.0311,VALID,0.0509425,VALID,20.9,VALID,106,VALID,0.0412109,
2001-04-23, 01:13:00,VALID,915.246,VALID,0,VALID,97.0679,VALID,0.0849042,VALID,20.9157,VALID,106,VALID,0.323518,
2001-04-23, 01:14:01,VALID,915.211,VALID,0,VALID,97.1417,VALID,0.0679233,VALID,20.9286,VALID,106,VALID,0.161801,
2001-04-23, 01:15:00,VALID,915.189,VALID,0,VALID,97.1595,VALID,0.0509425,VALID,20.9248,VALID,106,VALID,0.0204327,
2001-04-23, 01:16:00,VALID,915.176,VALID,0,VALID,97.2142,VALID,0.0509425,VALID,20.9475,VALID,106,VALID,0.0191201,
2001-04-23, 01:17:00,VALID,915.159,VALID,0,VALID,97.1976,VALID,0.0509425,VALID,20.9741,VALID,106,VALID,0.0276442,
2001-04-23, 01:18:00,VALID,915.153,VALID,0,VALID,97.1964,VALID,0.0679233,VALID,20.9738,VALID,106,VALID,0.0763672,
2001-04-23, 01:19:00,VALID,915.131,VALID,0,VALID,97.2269,VALID,0.0509425,VALID,20.9932,VALID,106,VALID,0.210304,
2001-04-23, 01:20:00,VALID,915.133,VALID,0,VALID,97.2307,VALID,0.0339617,VALID,21.0061,VALID,106,VALID,0,
2001-04-23, 01:21:00,VALID,915.124,VALID,0,VALID,97.2002,VALID,0.0339617,VALID,21.0164,VALID,106,VALID,0,
2001-04-23, 01:22:01,VALID,915.119,VALID,0,VALID,97.1341,VALID,0.0849042,VALID,21.0064,VALID,106,VALID,0,
2001-04-23, 01:23:00,VALID,915.104,VALID,0,VALID,97.129,VALID,0,VALID,20.994,VALID,106,VALID,0,
2001-04-23, 01:24:00,VALID,915.109,VALID,0,VALID,97.1315,VALID,-0.0509425,VALID,20.9945,VALID,106,VALID,0.0559211,
2001-04-23, 01:25:00,VALID,915.083,VALID,0,VALID,97.059,VALID,-0.0339617,VALID,20.9883,VALID,99,VALID,0.0647035,
2001-04-23, 01:26:01,VALID,915.068,VALID,0,VALID,97.0438,VALID,-0.0339617,VALID,20.9786,VALID,98,VALID,0,
2001-04-23, 01:27:00,VALID,915.069,VALID,0,VALID,97.0603,VALID,-0.0509425,VALID,20.9684,VALID,69,VALID,0.0829814,
2001-04-23, 01:28:00,VALID,915.064,VALID,0,VALID,97.0552,VALID,-0.0509425,VALID,20.9555,VALID,294,VALID,0.0933594,
2001-04-23, 01:29:00,VALID,915.059,VALID,0,VALID,97.0781,VALID,-0.0169808,VALID,20.9431,VALID,203,VALID,0.338942,
2001-04-23, 01:30:01,VALID,915.057,VALID,0,VALID,97.2142,VALID,-0.0339617,VALID,20.9498,VALID,95,VALID,0.421258,
2001-04-23, 01:31:00,VALID,915.063,VALID,0,VALID,97.2854,VALID,-0.0509425,VALID,20.9625,VALID,95,VALID,0,
2001-04-23, 01:32:00,VALID,915.049,VALID,0,VALID,97.265,VALID,-0.0679233,VALID,20.9525,VALID,95,VALID,0,
2001-04-23, 01:33:00,VALID,915.056,VALID,0,VALID,97.2803,VALID,-0.0509425,VALID,20.9531,VALID,275,VALID,0.346955,
2001-04-23, 01:34:00,VALID,915.049,VALID,0,VALID,97.1862,VALID,-0.0509425,VALID,20.9232,VALID,249,VALID,0.32832,
2001-04-23, 01:35:00,VALID,915.04,VALID,0,VALID,97.2663,VALID,-0.0679233,VALID,20.914,VALID,214,VALID,0.115287,
2001-04-23, 01:36:00,VALID,915.032,VALID,0,VALID,97.3769,VALID,-0.0339617,VALID,20.9105,VALID,146,VALID,0.249219,
2001-04-23, 01:37:00,VALID,915.033,VALID,0,VALID,97.4685,VALID,-0.0679233,VALID,20.9105,VALID,120,VALID,0.0108173,
2001-04-23, 01:38:01,VALID,915.033,VALID,0,VALID,97.5155,VALID,-0.0339617,VALID,20.9105,VALID,120,VALID,0.098273,
2001-04-23, 01:39:00,VALID,915.036,VALID,0,VALID,97.4456,VALID,0,VALID,20.8949,VALID,120,VALID,0.108774,
2001-04-23, 01:40:00,VALID,915.036,VALID,0,VALID,97.4291,VALID,0,VALID,20.8621,VALID,314,VALID,0.188939,
2001-04-23, 01:41:00,VALID,915.036,VALID,0,VALID,97.6046,VALID,0,VALID,20.8621,VALID,56,VALID,0.642228,
2001-04-23, 01:42:00,VALID,915.024,VALID,0,VALID,97.6732,VALID,-0.0169808,VALID,20.8578,VALID,126,VALID,0.75332,
2001-04-23, 01:43:00,VALID,915.033,VALID,0,VALID,97.794,VALID,-0.0339617,VALID,20.865,VALID,86,VALID,0.564189,
2001-04-23, 01:44:00,VALID,915.043,VALID,0,VALID,97.8729,VALID,0.0169808,VALID,20.8683,VALID,76,VALID,0.0484375,
2001-04-23, 01:45:00,VALID,915.054,VALID,0,VALID,97.8411,VALID,0.0169808,VALID,20.8621,VALID,113,VALID,0.36278,
2001-04-23, 01:46:01,VALID,915.049,VALID,0,VALID,97.9555,VALID,0.0169808,VALID,20.8645,VALID,112,VALID,0.399671,
2001-04-23, 01:47:00,VALID,915.051,VALID,0,VALID,98.0115,VALID,0.0169808,VALID,20.8903,VALID,111,VALID,0.31871,
2001-04-23, 01:48:00,VALID,915.066,VALID,0,VALID,98.0687,VALID,0,VALID,20.9167,VALID,114,VALID,0.461349,
2001-04-23, 01:49:00,VALID,915.049,VALID,0,VALID,97.9631,VALID,0,VALID,20.8941,VALID,115,VALID,0.170473,
2001-04-23, 01:50:01,VALID,915.049,VALID,0,VALID,97.8716,VALID,0,VALID,20.8745,VALID,118,VALID,0.151172,
2001-04-23, 01:51:00,VALID,915.05,VALID,0,VALID,97.8245,VALID,-0.0169808,VALID,20.8782,VALID,105,VALID,0.534628,
2001-04-23, 01:52:00,VALID,915.058,VALID,0,VALID,97.7991,VALID,-0.0169808,VALID,20.8941,VALID,110,VALID,0.429688,
2001-04-23, 01:53:00,VALID,915.054,VALID,0,VALID,97.6808,VALID,0,VALID,20.8817,VALID,101,VALID,0.4373,
2001-04-23, 01:54:01,VALID,915.04,VALID,0,VALID,97.5562,VALID,-0.0339617,VALID,20.8752,VALID,102,VALID,0.639803,
2001-04-23, 01:55:00,VALID,915.027,VALID,0,VALID,97.4927,VALID,0,VALID,20.8556,VALID,103,VALID,0.606571,
2001-04-23, 01:56:00,VALID,915.014,VALID,0,VALID,97.4456,VALID,0.0169808,VALID,20.8615,VALID,101,VALID,0.597862,
2001-04-23, 01:57:00,VALID,915,VALID,0,VALID,97.3299,VALID,0.0169808,VALID,20.8489,VALID,97,VALID,0.637019,
2001-04-23, 01:58:00,VALID,914.981,VALID,0,VALID,97.3095,VALID,-0.0169808,VALID,20.8427,VALID,102,VALID,0.346289,
2001-04-23, 01:59:00,VALID,914.982,VALID,0,VALID,97.3401,VALID,0,VALID,20.8494,VALID,95,VALID,0.0831926,
2001-04-23, 02:00:00,VALID,914.981,VALID,0,VALID,97.1951,VALID,-0.0169808,VALID,20.823,VALID,3,VALID,0.19082,
2001-04-23, 02:01:00,VALID,914.978,VALID,0,VALID,97.1023,VALID,0,VALID,20.7939,VALID,293,VALID,0.398237,
2001-04-23, 02:02:01,VALID,914.964,VALID,0,VALID,97.0908,VALID,-0.0169808,VALID,20.778,VALID,291,VALID,0.242599,
2001-04-23, 02:03:00,VALID,914.954,VALID,0,VALID,97.0807,VALID,-0.0169808,VALID,20.7616,VALID,294,VALID,0,
2001-04-23, 02:04:00,VALID,914.935,VALID,0,VALID,97.1862,VALID,0.0169808,VALID,20.778,VALID,293,VALID,0,
2001-04-23, 02:05:00,VALID,914.908,VALID,0,VALID,97.1836,VALID,0,VALID,20.7676,VALID,292,VALID,0,
2001-04-23, 02:06:01,VALID,914.895,VALID,0,VALID,97.2638,VALID,0,VALID,20.7745,VALID,315,VALID,0.0486328,
2001-04-23, 02:07:00,VALID,914.879,VALID,0,VALID,97.2142,VALID,0,VALID,20.7711,VALID,321,VALID,0,
2001-04-23, 02:08:00,VALID,914.859,VALID,0,VALID,97.2091,VALID,0,VALID,20.7616,VALID,321,VALID,0,
2001-04-23, 02:09:01,VALID,914.856,VALID,0,VALID,97.2727,VALID,0,VALID,20.7745,VALID,321,VALID,0.0010016,
2001-04-23, 02:10:01,VALID,914.846,VALID,0,VALID,97.307,VALID,0.0169808,VALID,20.7907,VALID,322,VALID,0.0645559,
2001-04-23, 02:11:01,VALID,914.829,VALID,0,VALID,97.3121,VALID,-0.0169808,VALID,20.7802,VALID,324,VALID,0.00320513,
2001-04-23, 02:12:00,VALID,914.822,VALID,0,VALID,97.293,VALID,0,VALID,20.7969,VALID,84,VALID,0.34375,
2001-04-23, 02:13:00,VALID,914.793,VALID,0,VALID,97.2561,VALID,0,VALID,20.8071,VALID,123,VALID,0.363982,
2001-04-23, 02:14:01,VALID,914.766,VALID,0,VALID,97.2485,VALID,0,VALID,20.8133,VALID,105,VALID,0.704883,
2001-04-23, 02:15:00,VALID,914.733,VALID,0,VALID,97.1684,VALID,0,VALID,20.8074,VALID,106,VALID,0.964105,
2001-04-23, 02:16:01,VALID,914.719,VALID,0.2,VALID,97.0921,VALID,0,VALID,20.7713,VALID,105,VALID,0.801758,
2001-04-23, 02:17:01,VALID,914.702,VALID,0,VALID,97.1391,VALID,-0.0169808,VALID,20.7393,VALID,105,VALID,0.383013,
2001-04-23, 02:18:01,VALID,914.714,VALID,0,VALID,97.3986,VALID,-0.0169808,VALID,20.7323,VALID,104,VALID,0.160979,
2001-04-23, 02:19:00,VALID,914.701,VALID,0.2,VALID,97.5066,VALID,0,VALID,20.7452,VALID,99,VALID,0.22516,
2001-04-23, 02:20:00,VALID,914.702,VALID,0,VALID,97.4888,VALID,-0.0169808,VALID,20.7395,VALID,98,VALID,0.650905,
2001-04-23, 02:21:01,VALID,914.699,VALID,0,VALID,97.5918,VALID,-0.0169808,VALID,20.7067,VALID,76,VALID,0.748598,
2001-04-23, 02:22:00,VALID,914.683,VALID,0,VALID,97.7393,VALID,0,VALID,20.7166,VALID,91,VALID,0.785352,
2001-04-23, 02:23:00,VALID,914.671,VALID,0,VALID,97.8538,VALID,0.0169808,VALID,20.7164,VALID,101,VALID,0.781883,
2001-04-23, 02:24:00,VALID,914.669,VALID,0,VALID,97.9415,VALID,0,VALID,20.7164,VALID,99,VALID,0.672656,
2001-04-23, 02:25:00,VALID,914.688,VALID,0,VALID,97.9708,VALID,0,VALID,20.7231,VALID,83,VALID,0.434095,
2001-04-23, 02:26:01,VALID,914.701,VALID,0,VALID,97.9822,VALID,-0.0339617,VALID,20.7072,VALID,89,VALID,0.398232,
2001-04-23, 02:27:01,VALID,914.712,VALID,0,VALID,98.042,VALID,-0.0509425,VALID,20.7005,VALID,95,VALID,0.561298,
2001-04-23, 02:28:00,VALID,914.718,VALID,0,VALID,98.0305,VALID,0,VALID,20.6973,VALID,94,VALID,0.966488,
2001-04-23, 02:29:01,VALID,914.706,VALID,0,VALID,98.0496,VALID,-0.0169808,VALID,20.6908,VALID,53,VALID,0.547877,
2001-04-23, 02:30:01,VALID,914.714,VALID,0,VALID,98.075,VALID,-0.0169808,VALID,20.6617,VALID,62,VALID,0.850195,
2001-04-23, 02:31:00,VALID,914.705,VALID,0,VALID,98.0483,VALID,-0.0169808,VALID,20.6326,VALID,85,VALID,1.25887,
2001-04-23, 02:32:01,VALID,914.68,VALID,0,VALID,98.0827,VALID,-0.0339617,VALID,20.5974,VALID,89,VALID,1.17012,
2001-04-23, 02:33:01,VALID,914.679,VALID,0,VALID,98.1742,VALID,-0.0169808,VALID,20.5912,VALID,83,VALID,1.01563,
2001-04-23, 02:34:01,VALID,914.665,VALID,0,VALID,98.1577,VALID,-0.0169808,VALID,20.5397,VALID,32,VALID,1.63199,
2001-04-23, 02:35:01,VALID,914.654,VALID,0.2,VALID,98.1755,VALID,-0.0509425,VALID,20.491,VALID,67,VALID,1.10417,
2001-04-23, 02:36:01,VALID,914.656,VALID,0,VALID,98.3217,VALID,-0.0339617,VALID,20.5002,VALID,82,VALID,1.26316,
2001-04-23, 02:37:01,VALID,914.668,VALID,0,VALID,98.4018,VALID,-0.0339617,VALID,20.5039,VALID,46,VALID,0.856445,
2001-04-23, 02:38:01,VALID,914.673,VALID,0,VALID,98.4692,VALID,-0.0509425,VALID,20.5168,VALID,86,VALID,1.39531,
2001-04-23, 02:39:01,VALID,914.677,VALID,0,VALID,98.529,VALID,-0.0169808,VALID,20.5168,VALID,85,VALID,1.23564,
2001-04-23, 02:40:01,VALID,914.694,VALID,0,VALID,98.5443,VALID,-0.0169808,VALID,20.4934,VALID,89,VALID,1.76973,
2001-04-23, 02:41:01,VALID,914.7,VALID,0,VALID,98.6078,VALID,-0.0169808,VALID,20.4967,VALID,87,VALID,1.29708,
2001-04-23, 02:42:01,VALID,914.73,VALID,0,VALID,98.6473,VALID,0,VALID,20.5066,VALID,82,VALID,1.06661,
2001-04-23, 02:43:01,VALID,914.747,VALID,0,VALID,98.7223,VALID,-0.0169808,VALID,20.5325,VALID,99,VALID,1.37019,
2001-04-23, 02:44:01,VALID,914.769,VALID,0,VALID,98.7426,VALID,-0.0169808,VALID,20.5327,VALID,97,VALID,1.29112,
2001-04-23, 02:45:01,VALID,914.78,VALID,0,VALID,98.721,VALID,0,VALID,20.5136,VALID,90,VALID,1.01042,
2001-04-23, 02:46:01,VALID,914.777,VALID,0,VALID,98.7579,VALID,0,VALID,20.5196,VALID,88,VALID,0.505664,
2001-04-23, 02:47:01,VALID,914.785,VALID,0,VALID,98.7668,VALID,0,VALID,20.5198,VALID,94,VALID,0.831081,
2001-04-23, 02:48:01,VALID,914.785,VALID,0,VALID,98.7999,VALID,0,VALID,20.5263,VALID,75,VALID,0.233203,
2001-04-23, 02:49:00,VALID,914.795,VALID,0,VALID,98.7452,VALID,0,VALID,20.4584,VALID,48,VALID,0.874199,
2001-04-23, 02:50:00,VALID,914.781,VALID,0,VALID,98.735,VALID,0,VALID,20.4393,VALID,100,VALID,1.34519,
2001-04-23, 02:51:00,VALID,914.799,VALID,0,VALID,98.7592,VALID,0,VALID,20.4261,VALID,102,VALID,0.934095,
2001-04-23, 02:52:00,VALID,914.815,VALID,0,VALID,98.8202,VALID,-0.0509425,VALID,20.4455,VALID,117,VALID,0.430921,
2001-04-23, 02:53:00,VALID,914.829,VALID,0,VALID,98.866,VALID,-0.0339617,VALID,20.491,VALID,105,VALID,0.388421,
2001-04-23, 02:54:00,VALID,914.84,VALID,0,VALID,98.8965,VALID,0,VALID,20.5039,VALID,98,VALID,0.554688,
2001-04-23, 02:55:00,VALID,914.847,VALID,0,VALID,98.8863,VALID,0,VALID,20.5201,VALID,102,VALID,0.948057,
2001-04-23, 02:56:00,VALID,914.861,VALID,0,VALID,98.8584,VALID,0,VALID,20.4778,VALID,92,VALID,0.260547,
2001-04-23, 02:57:00,VALID,914.868,VALID,0,VALID,98.8304,VALID,0.0169808,VALID,20.439,VALID,65,VALID,0.228766,
2001-04-23, 02:58:00,VALID,914.875,VALID,0,VALID,98.8533,VALID,0.0169808,VALID,20.4224,VALID,102,VALID,0.438117,
2001-04-23, 02:59:00,VALID,914.877,VALID,0,VALID,98.8367,VALID,-0.0169808,VALID,20.4097,VALID,109,VALID,0.792668,
2001-04-23, 03:00:00,VALID,914.888,VALID,0,VALID,98.8647,VALID,0,VALID,20.4162,VALID,98,VALID,0.737253,
2001-04-23, 03:01:00,VALID,914.881,VALID,0,VALID,98.8876,VALID,0.0169808,VALID,20.4288,VALID,83,VALID,0.288462,
2001-04-23, 03:02:00,VALID,914.875,VALID,0,VALID,98.9092,VALID,0.0169808,VALID,20.4455,VALID,105,VALID,0.676367,
2001-04-23, 03:03:00,VALID,914.889,VALID,0,VALID,98.9041,VALID,0.0169808,VALID,20.4224,VALID,94,VALID,0.787162,
2001-04-23, 03:04:00,VALID,914.89,VALID,0,VALID,98.8863,VALID,-0.0169808,VALID,20.4132,VALID,91,VALID,0.399219,
2001-04-23, 03:05:00,VALID,914.882,VALID,0,VALID,98.8876,VALID,0,VALID,20.4067,VALID,76,VALID,0.349559,
2001-04-23, 03:06:00,VALID,914.89,VALID,0,VALID,98.8291,VALID,0.0169808,VALID,20.3322,VALID,72,VALID,0.39926,
2001-04-23, 03:07:00,VALID,914.874,VALID,0,VALID,98.8316,VALID,0.0169808,VALID,20.316,VALID,100,VALID,0.375401,
2001-04-23, 03:08:00,VALID,914.87,VALID,0,VALID,98.8444,VALID,0,VALID,20.3066,VALID,100,VALID,0.820929,
2001-04-23, 03:09:00,VALID,914.846,VALID,0,VALID,98.894,VALID,0,VALID,20.3389,VALID,91,VALID,0.808093,
2001-04-23, 03:10:00,VALID,914.832,VALID,0,VALID,98.9105,VALID,0,VALID,20.3523,VALID,100,VALID,0.585547,
2001-04-23, 03:11:00,VALID,914.817,VALID,0,VALID,98.9308,VALID,-0.0169808,VALID,20.3553,VALID,98,VALID,0.63598,
2001-04-23, 03:12:00,VALID,914.795,VALID,0,VALID,98.9423,VALID,0.0169808,VALID,20.3742,VALID,99,VALID,0.516992,
2001-04-23, 03:13:00,VALID,914.794,VALID,0,VALID,98.9499,VALID,0,VALID,20.3941,VALID,110,VALID,0.727364,
2001-04-23, 03:14:00,VALID,914.782,VALID,0,VALID,98.9525,VALID,0,VALID,20.3911,VALID,102,VALID,0.838816,
2001-04-23, 03:15:00,VALID,914.761,VALID,0,VALID,98.9448,VALID,0,VALID,20.3903,VALID,93,VALID,0.902043,
2001-04-23, 03:16:00,VALID,914.757,VALID,0,VALID,98.927,VALID,0,VALID,20.3742,VALID,94,VALID,0.617804,
2001-04-23, 03:17:00,VALID,914.747,VALID,0,VALID,98.9181,VALID,0,VALID,20.3545,VALID,98,VALID,0.757813,
2001-04-23, 03:18:00,VALID,914.732,VALID,0,VALID,98.9156,VALID,0,VALID,20.3545,VALID,89,VALID,0.776563,
2001-04-23, 03:19:00,VALID,914.742,VALID,0,VALID,98.894,VALID,0.0169808,VALID,20.3426,VALID,99,VALID,0.757179,
2001-04-23, 03:20:00,VALID,914.722,VALID,0,VALID,98.8825,VALID,-0.0169808,VALID,20.313,VALID,97,VALID,1.27129,
2001-04-23, 03:21:00,VALID,914.716,VALID,0,VALID,98.8838,VALID,0,VALID,20.3063,VALID,99,VALID,1.08994,
2001-04-23, 03:22:00,VALID,914.705,VALID,0,VALID,98.9105,VALID,0,VALID,20.3001,VALID,96,VALID,0.839844,
2001-04-23, 03:23:00,VALID,914.685,VALID,0,VALID,98.9016,VALID,0,VALID,20.3168,VALID,101,VALID,1.03125,
2001-04-23, 03:24:00,VALID,914.673,VALID,0,VALID,98.9334,VALID,0,VALID,20.3101,VALID,105,VALID,0.413651,
2001-04-23, 03:25:00,VALID,914.672,VALID,0,VALID,98.9156,VALID,-0.0169808,VALID,20.3267,VALID,112,VALID,0.547476,
2001-04-23, 03:26:00,VALID,914.666,VALID,0,VALID,98.8927,VALID,0,VALID,20.2907,VALID,100,VALID,0.711523,
2001-04-23, 03:27:00,VALID,914.678,VALID,0,VALID,98.8978,VALID,0,VALID,20.2845,VALID,92,VALID,0.529983,
2001-04-23, 03:28:00,VALID,914.682,VALID,0,VALID,98.899,VALID,0,VALID,20.2772,VALID,92,VALID,0.40332,
2001-04-23, 03:29:00,VALID,914.687,VALID,0,VALID,98.8825,VALID,-0.0169808,VALID,20.2482,VALID,68,VALID,0.601362,
2001-04-23, 03:30:00,VALID,914.681,VALID,0,VALID,98.8507,VALID,-0.0169808,VALID,20.2263,VALID,93,VALID,0.792352,
2001-04-23, 03:31:00,VALID,914.685,VALID,0,VALID,98.852,VALID,0,VALID,20.2266,VALID,99,VALID,1.13321,
2001-04-23, 03:32:00,VALID,914.661,VALID,0,VALID,98.8685,VALID,0,VALID,20.2196,VALID,97,VALID,1.00226,
2001-04-23, 03:33:00,VALID,914.658,VALID,0,VALID,98.8927,VALID,0.0169808,VALID,20.2459,VALID,96,VALID,0.718149,
2001-04-23, 03:34:00,VALID,914.635,VALID,0,VALID,98.7846,VALID,0.0169808,VALID,20.1714,VALID,100,VALID,0.657422,
2001-04-23, 03:35:00,VALID,914.626,VALID,0,VALID,98.7693,VALID,0,VALID,20.1324,VALID,101,VALID,0.925042,